Time,TemperatureF,DewpointF,PressureIn,WindDirection,WindDirectionDegrees,WindSpeedMPH,WindSpeedGustMPH,Humidity,HourlyPrecipIn,Conditions,Clouds,dailyrainin,SoftwareType,DateUTC
2013-07-21 00:00:00,62.1,56.8,30.24,South,180,0.0,0.0,83,0.00,,,0.00,meteobridge,2013-07-21 06:00:00,
2013-07-21 00:06:00,62.6,57.0,30.23,West,270,2.2,3.1,82,0.00,,,0.00,meteobridge,2013-07-21 06:06:00,
2013-07-21 00:13:00,62.2,57.0,30.22,SE,135,0.0,0.0,83,0.00,,,0.00,meteobridge,2013-07-21 06:13:00,
2013-07-21 00:19:00,61.9,56.3,30.23,South,180,0.0,1.6,82,0.00,,,0.00,meteobridge,2013-07-21 06:19:00,
2013-07-21 00:25:00,61.7,56.1,30.23,South,180,0.0,0.0,82,0.00,,,0.00,meteobridge,2013-07-21 06:25:00,
2013-07-21 00:32:00,62.1,56.5,30.22,North,0,0.0,0.0,82,0.00,,,0.00,meteobridge,2013-07-21 06:32:00,
2013-07-21 00:38:00,62.1,56.5,30.22,North,0,0.0,0.0,82,0.00,,,0.00,meteobridge,2013-07-21 06:38:00,
2013-07-21 00:44:00,62.2,57.0,30.22,NW,315,0.0,0.0,83,0.00,,,0.00,meteobridge,2013-07-21 06:44:00,
2013-07-21 00:51:00,62.1,56.8,30.22,SE,135,0.0,0.0,83,0.00,,,0.00,meteobridge,2013-07-21 06:51:00,
2013-07-21 00:57:00,62.4,57.2,30.22,East,90,0.0,0.0,83,0.00,,,0.00,meteobridge,2013-07-21 06:57:00,
2013-07-21 01:03:00,62.4,56.8,30.22,East,90,0.0,0.0,82,0.00,,,0.00,meteobridge,2013-07-21 07:03:00,
2013-07-21 01:10:00,62.4,56.8,30.22,East,90,0.0,0.0,82,0.00,,,0.00,meteobridge,2013-07-21 07:10:00,
2013-07-21 01:16:00,62.6,57.0,30.21,East,90,0.0,0.0,82,0.01,,,0.01,meteobridge,2013-07-21 07:16:00,
2013-07-21 01:25:00,62.4,57.2,30.21,SE,135,0.0,0.0,83,0.01,,,0.01,meteobridge,2013-07-21 07:25:00,
2013-07-21 01:31:00,62.4,57.6,30.20,SE,135,0.0,0.0,84,0.02,,,0.02,meteobridge,2013-07-21 07:31:00,
2013-07-21 01:37:00,62.2,57.4,30.20,East,90,0.0,0.0,84,0.02,,,0.02,meteobridge,2013-07-21 07:37:00,
2013-07-21 01:44:00,62.2,57.4,30.19,East,90,0.0,0.0,84,0.04,,,0.04,meteobridge,2013-07-21 07:44:00,
2013-07-21 01:50:00,62.2,57.4,30.19,North,0,0.0,0.0,84,0.04,,,0.04,meteobridge,2013-07-21 07:50:00,
2013-07-21 01:56:00,62.1,57.2,30.19,North,0,0.0,0.0,84,0.04,,,0.04,meteobridge,2013-07-21 07:56:00,
2013-07-21 02:03:00,62.1,57.2,30.19,East,90,0.0,0.0,84,0.04,,,0.04,meteobridge,2013-07-21 08:03:00,
2013-07-21 02:09:00,62.1,57.6,30.19,East,90,0.0,0.0,85,0.04,,,0.04,meteobridge,2013-07-21 08:09:00,
2013-07-21 02:15:00,61.9,57.4,30.19,East,90,0.0,0.0,85,0.02,,,0.04,meteobridge,2013-07-21 08:15:00,
2013-07-21 02:22:00,61.7,56.8,30.19,East,90,0.0,0.0,84,0.02,,,0.04,meteobridge,2013-07-21 08:22:00,
2013-07-21 02:28:00,61.7,56.8,30.20,NE,45,0.0,0.0,84,0.01,,,0.04,meteobridge,2013-07-21 08:28:00,
2013-07-21 02:34:00,61.9,57.0,30.20,East,90,0.0,0.0,84,0.01,,,0.04,meteobridge,2013-07-21 08:34:00,
2013-07-21 02:41:00,61.3,56.5,30.20,East,90,0.0,0.7,84,0.01,,,0.04,meteobridge,2013-07-21 08:41:00,
2013-07-21 02:47:00,61.5,56.7,30.20,NE,45,0.0,0.0,84,0.00,,,0.04,meteobridge,2013-07-21 08:47:00,
2013-07-21 02:53:00,61.5,56.7,30.20,East,90,0.0,0.0,84,0.00,,,0.04,meteobridge,2013-07-21 08:53:00,
2013-07-21 03:00:00,61.5,56.7,30.20,East,90,0.0,0.0,84,0.00,,,0.04,meteobridge,2013-07-21 09:00:00,
2013-07-21 03:08:00,61.3,56.5,30.20,East,90,0.0,0.0,84,0.00,,,0.04,meteobridge,2013-07-21 09:08:00,
2013-07-21 03:15:00,61.3,56.5,30.19,East,90,0.0,0.0,84,0.00,,,0.04,meteobridge,2013-07-21 09:15:00,
2013-07-21 03:21:00,61.3,56.5,30.19,South,180,1.6,1.6,84,0.00,,,0.04,meteobridge,2013-07-21 09:21:00,
2013-07-21 03:27:00,61.3,56.5,30.19,SE,135,0.0,0.0,84,0.00,,,0.04,meteobridge,2013-07-21 09:27:00,
2013-07-21 03:34:00,61.0,56.1,30.19,SE,135,3.1,3.1,84,0.00,,,0.04,meteobridge,2013-07-21 09:34:00,
2013-07-21 03:40:00,60.8,55.9,30.18,SE,135,0.0,0.0,84,0.00,,,0.04,meteobridge,2013-07-21 09:40:00,
2013-07-21 03:46:00,60.6,56.1,30.18,SE,135,0.0,0.0,85,0.00,,,0.04,meteobridge,2013-07-21 09:46:00,
2013-07-21 03:53:00,60.6,56.1,30.17,East,90,0.0,0.0,85,0.00,,,0.04,meteobridge,2013-07-21 09:53:00,
2013-07-21 03:59:00,60.8,55.9,30.17,East,90,0.0,0.0,84,0.00,,,0.04,meteobridge,2013-07-21 09:59:00,
2013-07-21 04:05:00,60.6,56.1,30.17,South,180,0.0,1.6,85,0.00,,,0.04,meteobridge,2013-07-21 10:05:00,
2013-07-21 04:12:00,60.6,56.1,30.17,SE,135,0.0,0.0,85,0.00,,,0.04,meteobridge,2013-07-21 10:12:00,
2013-07-21 04:18:00,60.6,56.1,30.18,East,90,0.0,0.0,85,0.00,,,0.04,meteobridge,2013-07-21 10:18:00,
2013-07-21 04:24:00,60.6,55.8,30.17,SE,135,0.0,0.0,84,0.00,,,0.04,meteobridge,2013-07-21 10:24:00,
2013-07-21 04:31:00,60.6,55.8,30.18,SE,135,1.6,1.6,84,0.00,,,0.04,meteobridge,2013-07-21 10:31:00,
2013-07-21 04:37:00,60.3,55.4,30.18,East,90,0.0,0.0,84,0.00,,,0.04,meteobridge,2013-07-21 10:37:00,
2013-07-21 04:43:00,60.3,55.4,30.19,South,180,0.0,0.0,84,0.00,,,0.04,meteobridge,2013-07-21 10:43:00,
2013-07-21 04:50:00,60.3,55.4,30.20,South,180,0.0,0.0,84,0.00,,,0.04,meteobridge,2013-07-21 10:50:00,
2013-07-21 04:56:00,60.3,55.8,30.19,SE,135,0.0,0.0,85,0.00,,,0.04,meteobridge,2013-07-21 10:56:00,
2013-07-21 05:02:00,60.3,55.8,30.20,SE,135,0.0,0.0,85,0.00,,,0.04,meteobridge,2013-07-21 11:02:00,
2013-07-21 05:09:00,60.4,55.9,30.20,South,180,0.0,0.0,85,0.00,,,0.04,meteobridge,2013-07-21 11:09:00,
2013-07-21 05:15:00,60.3,55.8,30.20,East,90,0.0,0.0,85,0.00,,,0.04,meteobridge,2013-07-21 11:15:00,
2013-07-21 05:21:00,60.6,56.1,30.20,South,180,0.0,0.0,85,0.00,,,0.04,meteobridge,2013-07-21 11:21:00,
2013-07-21 05:28:00,60.8,55.9,30.20,SE,135,0.0,0.0,84,0.00,,,0.04,meteobridge,2013-07-21 11:28:00,
2013-07-21 05:34:00,60.8,56.3,30.20,East,90,0.0,0.0,85,0.00,,,0.04,meteobridge,2013-07-21 11:34:00,
2013-07-21 05:41:00,61.0,56.1,30.21,SE,135,0.0,0.7,84,0.00,,,0.04,meteobridge,2013-07-21 11:41:00,
2013-07-21 05:47:00,61.2,56.3,30.21,NE,45,0.0,0.0,84,0.00,,,0.04,meteobridge,2013-07-21 11:47:00,
2013-07-21 05:53:00,61.3,56.5,30.22,East,90,0.0,0.0,84,0.00,,,0.04,meteobridge,2013-07-21 11:53:00,
2013-07-21 06:00:00,61.2,56.3,30.22,South,180,0.0,0.0,84,0.00,,,0.04,meteobridge,2013-07-21 12:00:00,
2013-07-21 06:06:00,61.2,56.3,30.22,West,270,0.0,0.0,84,0.00,,,0.04,meteobridge,2013-07-21 12:06:00,
2013-07-21 06:12:00,61.7,56.8,30.22,East,90,0.0,0.0,84,0.00,,,0.04,meteobridge,2013-07-21 12:12:00,
2013-07-21 06:19:00,61.7,56.8,30.22,South,180,0.0,0.0,84,0.00,,,0.04,meteobridge,2013-07-21 12:19:00,
2013-07-21 06:25:00,61.9,56.7,30.22,South,180,0.0,0.0,83,0.00,,,0.04,meteobridge,2013-07-21 12:25:00,
2013-07-21 06:31:00,62.6,57.0,30.22,South,180,0.0,0.0,82,0.00,,,0.04,meteobridge,2013-07-21 12:31:00,
2013-07-21 06:38:00,63.3,57.7,30.22,South,180,0.0,0.0,82,0.00,,,0.04,meteobridge,2013-07-21 12:38:00,
2013-07-21 06:44:00,63.7,58.1,30.22,East,90,0.0,0.0,82,0.00,,,0.04,meteobridge,2013-07-21 12:44:00,
2013-07-21 06:50:00,64.0,58.1,30.22,South,180,0.0,0.0,81,0.00,,,0.04,meteobridge,2013-07-21 12:50:00,
2013-07-21 06:57:00,63.9,57.9,30.22,South,180,0.0,0.0,81,0.00,,,0.04,meteobridge,2013-07-21 12:57:00,
2013-07-21 07:03:00,64.0,58.1,30.22,South,180,0.0,0.0,81,0.00,,,0.04,meteobridge,2013-07-21 13:03:00,
2013-07-21 07:09:00,64.9,58.6,30.22,South,180,0.0,0.0,80,0.00,,,0.04,meteobridge,2013-07-21 13:09:00,
2013-07-21 07:16:00,64.2,57.6,30.23,South,180,1.6,3.1,79,0.00,,,0.04,meteobridge,2013-07-21 13:16:00,
2013-07-21 07:22:00,64.4,57.7,30.23,SE,135,0.0,0.7,79,0.00,,,0.04,meteobridge,2013-07-21 13:22:00,
2013-07-21 07:28:00,65.3,58.6,30.23,North,0,0.0,0.0,79,0.00,,,0.04,meteobridge,2013-07-21 13:28:00,
2013-07-21 07:35:00,64.9,57.9,30.23,West,270,0.0,0.0,78,0.00,,,0.04,meteobridge,2013-07-21 13:35:00,
2013-07-21 07:41:00,64.6,57.6,30.23,NW,315,0.7,1.6,78,0.00,,,0.04,meteobridge,2013-07-21 13:41:00,
2013-07-21 07:47:00,65.5,58.1,30.23,South,180,0.0,0.0,77,0.00,,,0.04,meteobridge,2013-07-21 13:47:00,
2013-07-21 07:54:00,65.7,58.3,30.23,North,0,1.6,2.2,77,0.00,,,0.04,meteobridge,2013-07-21 13:54:00,
2013-07-21 08:00:00,66.9,59.2,30.23,East,90,0.7,1.6,76,0.00,,,0.04,meteobridge,2013-07-21 14:00:00,
2013-07-21 08:06:00,70.2,60.6,30.23,NE,45,0.0,0.0,72,0.00,,,0.04,meteobridge,2013-07-21 14:06:00,
2013-07-21 08:13:00,70.9,58.5,30.23,North,0,0.0,0.0,65,0.00,,,0.04,meteobridge,2013-07-21 14:13:00,
2013-07-21 08:21:00,68.4,57.4,30.23,South,180,2.2,2.2,68,0.00,,,0.04,meteobridge,2013-07-21 14:21:00,
2013-07-21 08:28:00,69.1,58.1,30.23,SE,135,2.2,3.1,68,0.00,,,0.04,meteobridge,2013-07-21 14:28:00,
2013-07-21 08:34:00,68.0,57.4,30.23,East,90,2.2,3.1,69,0.00,,,0.04,meteobridge,2013-07-21 14:34:00,
2013-07-21 08:40:00,68.2,58.1,30.23,South,180,4.5,4.5,70,0.00,,,0.04,meteobridge,2013-07-21 14:40:00,
2013-07-21 08:47:00,68.5,57.9,30.24,SE,135,2.2,3.1,69,0.00,,,0.04,meteobridge,2013-07-21 14:47:00,
2013-07-21 08:53:00,68.9,58.3,30.24,SW,225,2.2,4.5,69,0.00,,,0.04,meteobridge,2013-07-21 14:53:00,
2013-07-21 08:59:00,69.8,58.3,30.23,North,0,0.0,0.7,67,0.00,,,0.04,meteobridge,2013-07-21 14:59:00,
2013-07-21 09:06:00,71.4,58.6,30.24,South,180,0.7,3.1,64,0.00,,,0.04,meteobridge,2013-07-21 15:06:00,
2013-07-21 09:12:00,72.1,58.8,30.24,NE,45,0.0,3.1,63,0.00,,,0.04,meteobridge,2013-07-21 15:12:00,
2013-07-21 09:20:00,72.5,59.2,30.24,East,90,0.0,2.2,63,0.00,,,0.04,meteobridge,2013-07-21 15:20:00,
2013-07-21 09:27:00,71.4,58.1,30.24,NW,315,6.0,6.0,63,0.00,,,0.04,meteobridge,2013-07-21 15:27:00,
2013-07-21 09:33:00,72.0,58.6,30.24,East,90,3.8,3.8,63,0.00,,,0.04,meteobridge,2013-07-21 15:33:00,
2013-07-21 09:39:00,73.4,59.2,30.24,North,0,3.8,6.0,61,0.00,,,0.04,meteobridge,2013-07-21 15:39:00,
2013-07-21 09:46:00,72.0,57.7,30.24,NW,315,3.1,5.4,61,0.00,,,0.04,meteobridge,2013-07-21 15:46:00,
2013-07-21 09:52:00,74.3,58.6,30.24,North,0,3.8,3.8,58,0.00,,,0.04,meteobridge,2013-07-21 15:52:00,
2013-07-21 09:59:00,75.9,60.1,30.24,West,270,3.1,3.1,58,0.00,,,0.04,meteobridge,2013-07-21 15:59:00,
2013-07-21 10:05:00,75.7,59.9,30.23,West,270,6.9,6.9,58,0.00,,,0.04,meteobridge,2013-07-21 16:05:00,
2013-07-21 10:11:00,77.5,60.6,30.24,North,0,0.7,3.8,56,0.00,,,0.04,meteobridge,2013-07-21 16:11:00,
2013-07-21 10:18:00,75.6,58.8,30.24,NW,315,5.4,5.4,56,0.00,,,0.04,meteobridge,2013-07-21 16:18:00,
2013-07-21 10:24:00,75.6,58.8,30.24,NW,315,3.8,4.5,56,0.00,,,0.04,meteobridge,2013-07-21 16:24:00,
2013-07-21 10:30:00,77.7,59.7,30.23,NW,315,8.3,8.3,54,0.00,,,0.04,meteobridge,2013-07-21 16:30:00,
2013-07-21 10:37:00,79.5,61.3,30.23,East,90,4.5,4.5,54,0.00,,,0.04,meteobridge,2013-07-21 16:37:00,
2013-07-21 10:43:00,78.1,59.5,30.23,West,270,4.5,6.9,53,0.00,,,0.04,meteobridge,2013-07-21 16:43:00,
2013-07-21 10:49:00,78.4,60.4,30.23,South,180,2.2,2.2,54,0.00,,,0.04,meteobridge,2013-07-21 16:49:00,
2013-07-21 10:56:00,78.6,60.6,30.23,NE,45,3.8,4.5,54,0.00,,,0.04,meteobridge,2013-07-21 16:56:00,
2013-07-21 11:02:00,79.0,59.9,30.23,North,0,3.8,7.6,52,0.00,,,0.04,meteobridge,2013-07-21 17:02:00,
2013-07-21 11:08:00,81.0,61.2,30.23,NW,315,6.9,6.9,51,0.00,,,0.04,meteobridge,2013-07-21 17:08:00,
2013-07-21 11:15:00,77.2,59.2,30.23,NE,45,3.8,6.0,54,0.00,,,0.04,meteobridge,2013-07-21 17:15:00,
2013-07-21 11:21:00,78.8,60.3,30.23,North,0,1.6,2.2,53,0.00,,,0.04,meteobridge,2013-07-21 17:21:00,
2013-07-21 11:27:00,75.2,58.5,30.23,NW,315,3.8,5.4,56,0.00,,,0.04,meteobridge,2013-07-21 17:27:00,
2013-07-21 11:34:00,76.8,59.9,30.23,SE,135,3.1,3.1,56,0.00,,,0.04,meteobridge,2013-07-21 17:34:00,
2013-07-21 11:40:00,74.5,58.8,30.24,South,180,6.0,6.0,58,0.00,,,0.04,meteobridge,2013-07-21 17:40:00,
2013-07-21 11:46:00,72.0,58.6,30.24,SE,135,8.3,10.7,63,0.00,,,0.04,meteobridge,2013-07-21 17:46:00,
2013-07-21 11:53:00,72.0,59.2,30.24,South,180,3.8,6.0,64,0.00,,,0.04,meteobridge,2013-07-21 17:53:00,
2013-07-21 11:59:00,71.4,59.0,30.24,SE,135,6.9,6.9,65,0.00,,,0.04,meteobridge,2013-07-21 17:59:00,
2013-07-21 12:05:00,72.0,58.6,30.24,SW,225,2.2,6.0,63,0.00,,,0.04,meteobridge,2013-07-21 18:05:00,
2013-07-21 12:12:00,71.2,57.9,30.24,West,270,2.2,4.5,63,0.00,,,0.04,meteobridge,2013-07-21 18:12:00,
2013-07-21 12:18:00,72.5,59.2,30.23,North,0,2.2,6.0,63,0.00,,,0.04,meteobridge,2013-07-21 18:18:00,
2013-07-21 12:24:00,74.5,59.7,30.23,NE,45,5.4,5.4,60,0.00,,,0.04,meteobridge,2013-07-21 18:24:00,
2013-07-21 12:31:00,74.1,58.8,30.23,NW,315,3.8,8.3,59,0.00,,,0.04,meteobridge,2013-07-21 18:31:00,
2013-07-21 12:37:00,74.1,58.5,30.22,West,270,3.8,8.3,58,0.00,,,0.04,meteobridge,2013-07-21 18:37:00,
2013-07-21 12:43:00,74.7,58.8,30.22,NE,45,2.2,9.2,58,0.00,,,0.04,meteobridge,2013-07-21 18:43:00,
2013-07-21 12:50:00,77.0,59.0,30.21,South,180,1.6,2.2,54,0.00,,,0.04,meteobridge,2013-07-21 18:50:00,
2013-07-21 12:56:00,75.2,58.5,30.21,SW,225,4.5,4.5,56,0.00,,,0.04,meteobridge,2013-07-21 18:56:00,
2013-07-21 13:02:00,73.4,57.2,30.21,NW,315,6.0,6.0,57,0.00,,,0.04,meteobridge,2013-07-21 19:02:00,
2013-07-21 13:09:00,73.8,59.0,30.21,SW,225,5.4,5.4,60,0.00,,,0.04,meteobridge,2013-07-21 19:09:00,
2013-07-21 13:15:00,73.6,59.4,30.21,SW,225,5.4,7.6,61,0.00,,,0.04,meteobridge,2013-07-21 19:15:00,
2013-07-21 13:22:00,72.7,58.8,30.21,NW,315,6.9,7.6,62,0.00,,,0.04,meteobridge,2013-07-21 19:22:00,
2013-07-21 13:28:00,72.5,58.8,30.21,West,270,6.0,6.0,62,0.00,,,0.04,meteobridge,2013-07-21 19:28:00,
2013-07-21 13:34:00,70.9,58.5,30.20,NW,315,6.9,9.2,65,0.00,,,0.04,meteobridge,2013-07-21 19:34:00,
2013-07-21 13:41:00,70.7,58.8,30.20,South,180,6.9,8.3,66,0.00,,,0.04,meteobridge,2013-07-21 19:41:00,
2013-07-21 13:47:00,69.1,57.7,30.19,SW,225,7.6,8.3,67,0.00,,,0.04,meteobridge,2013-07-21 19:47:00,
2013-07-21 13:53:00,69.6,58.6,30.19,NW,315,4.5,4.5,68,0.00,,,0.04,meteobridge,2013-07-21 19:53:00,
2013-07-21 14:00:00,68.9,58.6,30.20,West,270,4.5,4.5,70,0.00,,,0.04,meteobridge,2013-07-21 20:00:00,
2013-07-21 14:06:00,69.1,58.8,30.19,NW,315,3.8,4.5,70,0.00,,,0.04,meteobridge,2013-07-21 20:06:00,
2013-07-21 14:12:00,69.6,59.4,30.19,North,0,3.1,4.5,70,0.00,,,0.04,meteobridge,2013-07-21 20:12:00,
2013-07-21 14:19:00,70.2,58.6,30.19,South,180,2.2,2.2,67,0.00,,,0.04,meteobridge,2013-07-21 20:19:00,
2013-07-21 14:27:00,71.8,59.4,30.19,SW,225,3.1,3.1,65,0.00,,,0.04,meteobridge,2013-07-21 20:27:00,
2013-07-21 14:33:00,70.2,59.2,30.19,West,270,3.1,3.1,68,0.00,,,0.04,meteobridge,2013-07-21 20:33:00,
2013-07-21 14:40:00,69.1,58.5,30.18,West,270,3.8,6.0,69,0.00,,,0.04,meteobridge,2013-07-21 20:40:00,
2013-07-21 14:46:00,69.1,59.4,30.19,South,180,5.4,6.0,71,0.00,,,0.04,meteobridge,2013-07-21 20:46:00,
2013-07-21 14:52:00,68.9,58.3,30.18,West,270,8.3,9.2,69,0.00,,,0.04,meteobridge,2013-07-21 20:52:00,
2013-07-21 14:59:00,69.1,57.7,30.18,SW,225,1.6,7.6,67,0.00,,,0.04,meteobridge,2013-07-21 20:59:00,
2013-07-21 15:05:00,69.3,57.4,30.18,West,270,3.8,5.4,66,0.00,,,0.04,meteobridge,2013-07-21 21:05:00,
2013-07-21 15:11:00,69.6,57.7,30.18,South,180,3.1,6.0,66,0.00,,,0.04,meteobridge,2013-07-21 21:11:00,
2013-07-21 15:18:00,69.3,57.4,30.18,NW,315,4.5,5.4,66,0.00,,,0.04,meteobridge,2013-07-21 21:18:00,
2013-07-21 15:24:00,69.4,57.9,30.18,North,0,2.2,4.5,67,0.00,,,0.04,meteobridge,2013-07-21 21:24:00,
2013-07-21 15:30:00,71.2,58.8,30.18,North,0,0.0,1.6,65,0.00,,,0.04,meteobridge,2013-07-21 21:30:00,
2013-07-21 15:37:00,71.1,57.7,30.17,North,0,0.0,2.2,63,0.00,,,0.04,meteobridge,2013-07-21 21:37:00,
2013-07-21 15:43:00,70.5,57.7,30.18,West,270,3.1,5.4,64,0.00,,,0.04,meteobridge,2013-07-21 21:43:00,
2013-07-21 15:50:00,72.1,58.5,30.18,NW,315,0.0,1.6,62,0.00,,,0.04,meteobridge,2013-07-21 21:50:00,
2013-07-21 15:56:00,72.0,57.7,30.18,North,0,3.1,3.1,61,0.00,,,0.04,meteobridge,2013-07-21 21:56:00,
2013-07-21 16:02:00,70.2,56.5,30.19,West,270,1.6,3.1,62,0.00,,,0.04,meteobridge,2013-07-21 22:02:00,
2013-07-21 16:09:00,70.7,57.6,30.19,NW,315,3.1,3.1,63,0.00,,,0.04,meteobridge,2013-07-21 22:09:00,
2013-07-21 16:15:00,70.7,57.9,30.19,South,180,0.0,1.6,64,0.00,,,0.04,meteobridge,2013-07-21 22:15:00,
2013-07-21 16:23:00,71.1,58.3,30.19,North,0,0.0,1.6,64,0.00,,,0.04,meteobridge,2013-07-21 22:23:00,
2013-07-21 16:30:00,71.2,57.9,30.18,South,180,2.2,2.2,63,0.00,,,0.04,meteobridge,2013-07-21 22:30:00,
2013-07-21 16:36:00,70.9,57.7,30.18,East,90,2.2,2.2,63,0.00,,,0.04,meteobridge,2013-07-21 22:36:00,
2013-07-21 16:42:00,71.6,57.9,30.19,East,90,0.0,1.6,62,0.00,,,0.04,meteobridge,2013-07-21 22:42:00,
2013-07-21 16:49:00,70.7,57.6,30.19,North,0,2.2,3.1,63,0.00,,,0.04,meteobridge,2013-07-21 22:49:00,
2013-07-21 16:55:00,70.2,57.9,30.19,North,0,0.0,0.0,65,0.00,,,0.04,meteobridge,2013-07-21 22:55:00,
2013-07-21 17:01:00,69.6,57.7,30.19,NW,315,0.0,1.6,66,0.00,,,0.04,meteobridge,2013-07-21 23:01:00,
2013-07-21 17:08:00,70.3,58.1,30.19,North,0,0.0,0.0,65,0.00,,,0.04,meteobridge,2013-07-21 23:08:00,
2013-07-21 17:14:00,69.8,57.6,30.20,West,270,0.0,0.0,65,0.00,,,0.04,meteobridge,2013-07-21 23:14:00,
2013-07-21 17:20:00,68.9,57.0,30.20,West,270,0.0,2.2,66,0.00,,,0.04,meteobridge,2013-07-21 23:20:00,
2013-07-21 17:27:00,68.5,57.2,30.20,North,0,0.0,0.0,67,0.00,,,0.04,meteobridge,2013-07-21 23:27:00,
2013-07-21 17:33:00,68.2,57.2,30.21,NW,315,0.0,0.0,68,0.00,,,0.04,meteobridge,2013-07-21 23:33:00,
2013-07-21 17:39:00,68.0,57.4,30.22,East,90,0.0,0.7,69,0.00,,,0.04,meteobridge,2013-07-21 23:39:00,
2013-07-21 17:48:00,67.3,57.6,30.21,NW,315,1.6,1.6,71,0.00,,,0.04,meteobridge,2013-07-21 23:48:00,
2013-07-21 17:54:00,67.3,57.2,30.21,North,0,0.0,0.0,70,0.00,,,0.04,meteobridge,2013-07-21 23:54:00,
2013-07-21 18:01:00,67.1,57.4,30.21,North,0,0.0,0.7,71,0.00,,,0.04,meteobridge,2013-07-22 00:01:00,
2013-07-21 18:07:00,66.0,56.7,30.21,South,180,0.0,0.0,72,0.00,,,0.04,meteobridge,2013-07-22 00:07:00,
2013-07-21 18:13:00,65.5,57.0,30.21,West,270,0.0,0.0,74,0.00,,,0.04,meteobridge,2013-07-22 00:13:00,
2013-07-21 18:20:00,65.7,57.2,30.21,South,180,0.0,0.0,74,0.00,,,0.04,meteobridge,2013-07-22 00:20:00,
2013-07-21 18:26:00,65.5,57.4,30.21,South,180,0.0,0.0,75,0.00,,,0.04,meteobridge,2013-07-22 00:26:00,
2013-07-21 18:32:00,65.5,57.7,30.21,East,90,0.0,0.0,76,0.00,,,0.04,meteobridge,2013-07-22 00:32:00,
2013-07-21 18:39:00,65.5,57.7,30.22,East,90,0.0,0.0,76,0.00,,,0.04,meteobridge,2013-07-22 00:39:00,
2013-07-21 18:45:00,65.1,57.4,30.22,South,180,0.0,0.7,76,0.00,,,0.04,meteobridge,2013-07-22 00:45:00,
2013-07-21 18:51:00,65.1,58.1,30.23,SE,135,0.0,0.0,78,0.00,,,0.04,meteobridge,2013-07-22 00:51:00,
2013-07-21 18:58:00,65.1,58.5,30.23,NE,45,0.0,0.0,79,0.01,,,0.05,meteobridge,2013-07-22 00:58:00,
2013-07-21 19:06:00,65.1,58.5,30.23,South,180,0.0,0.0,79,0.01,,,0.05,meteobridge,2013-07-22 01:06:00,
2013-07-21 19:13:00,64.9,58.3,30.23,SE,135,0.0,0.0,79,0.01,,,0.05,meteobridge,2013-07-22 01:13:00,
2013-07-21 19:19:00,64.8,58.5,30.23,SE,135,0.0,1.6,80,0.02,,,0.06,meteobridge,2013-07-22 01:19:00,
2013-07-21 19:25:00,64.8,58.8,30.23,SE,135,0.0,0.0,81,0.04,,,0.07,meteobridge,2013-07-22 01:25:00,
2013-07-21 19:32:00,64.8,58.8,30.24,SE,135,0.0,0.0,81,0.05,,,0.08,meteobridge,2013-07-22 01:32:00,
2013-07-21 19:38:00,64.8,59.2,30.24,South,180,0.0,0.0,82,0.06,,,0.09,meteobridge,2013-07-22 01:38:00,
2013-07-21 19:44:00,64.4,58.8,30.24,SE,135,0.0,0.0,82,0.07,,,0.11,meteobridge,2013-07-22 01:44:00,
2013-07-21 19:51:00,64.2,58.6,30.24,South,180,0.0,0.0,82,0.08,,,0.12,meteobridge,2013-07-22 01:51:00,
2013-07-21 19:57:00,63.5,57.9,30.24,South,180,0.0,0.0,82,0.08,,,0.13,meteobridge,2013-07-22 01:57:00,
2013-07-21 20:03:00,63.5,57.9,30.25,South,180,0.0,0.0,82,0.11,,,0.15,meteobridge,2013-07-22 02:03:00,
2013-07-21 20:10:00,63.9,58.6,30.25,South,180,0.0,0.0,83,0.12,,,0.17,meteobridge,2013-07-22 02:10:00,
2013-07-21 20:16:00,63.7,58.5,30.25,South,180,0.0,0.0,83,0.11,,,0.17,meteobridge,2013-07-22 02:16:00,
2013-07-21 20:22:00,63.5,58.3,30.26,SW,225,0.0,0.0,83,0.12,,,0.18,meteobridge,2013-07-22 02:22:00,
2013-07-21 20:29:00,63.1,57.9,30.26,South,180,0.0,0.0,83,0.09,,,0.18,meteobridge,2013-07-22 02:29:00,
2013-07-21 20:35:00,63.1,58.3,30.26,South,180,0.0,0.0,84,0.09,,,0.19,meteobridge,2013-07-22 02:35:00,
2013-07-21 20:41:00,62.8,57.9,30.26,South,180,0.0,0.0,84,0.09,,,0.20,meteobridge,2013-07-22 02:41:00,
2013-07-21 20:48:00,62.6,57.4,30.26,South,180,0.0,0.0,83,0.11,,,0.22,meteobridge,2013-07-22 02:48:00,
2013-07-21 20:54:00,62.6,57.4,30.27,South,180,0.0,0.7,83,0.11,,,0.24,meteobridge,2013-07-22 02:54:00,
2013-07-21 21:00:00,62.6,57.4,30.27,South,180,0.0,0.0,83,0.11,,,0.25,meteobridge,2013-07-22 03:00:00,
2013-07-21 21:07:00,62.4,57.6,30.27,South,180,0.0,0.0,84,0.12,,,0.28,meteobridge,2013-07-22 03:07:00,
2013-07-21 21:13:00,62.6,57.7,30.27,South,180,0.0,0.0,84,0.13,,,0.30,meteobridge,2013-07-22 03:13:00,
2013-07-21 21:19:00,62.4,57.9,30.27,South,180,0.7,1.6,85,0.19,,,0.35,meteobridge,2013-07-22 03:19:00,
2013-07-21 21:26:00,63.0,58.1,30.27,South,180,0.0,0.0,84,0.25,,,0.43,meteobridge,2013-07-22 03:26:00,
2013-07-21 21:34:00,62.6,57.7,30.27,SW,225,0.0,0.0,84,0.32,,,0.50,meteobridge,2013-07-22 03:34:00,
2013-07-21 21:41:00,62.2,57.7,30.28,South,180,0.0,0.0,85,0.33,,,0.52,meteobridge,2013-07-22 03:41:00,
2013-07-21 21:47:00,62.6,57.7,30.28,South,180,0.0,0.0,84,0.32,,,0.54,meteobridge,2013-07-22 03:47:00,
2013-07-21 21:53:00,62.4,57.9,30.28,South,180,0.0,0.0,85,0.33,,,0.57,meteobridge,2013-07-22 03:53:00,
2013-07-21 22:00:00,61.9,57.4,30.28,South,180,0.0,0.0,85,0.34,,,0.59,meteobridge,2013-07-22 04:00:00,
2013-07-21 22:02:00,61.9,57.4,30.28,South,180,0.0,0.0,85,0.34,,,0.60,meteobridge,2013-07-22 04:02:00,
2013-07-21 22:04:00,62.2,57.7,30.28,South,180,0.0,0.0,85,0.37,,,0.63,meteobridge,2013-07-22 04:04:00,
2013-07-21 22:06:00,62.2,57.9,30.28,South,180,0.0,0.0,86,0.37,,,0.64,meteobridge,2013-07-22 04:06:00,
2013-07-21 22:08:00,62.2,57.9,30.29,South,180,0.0,0.0,86,0.37,,,0.65,meteobridge,2013-07-22 04:08:00,
2013-07-21 22:14:00,61.9,57.6,30.29,East,90,0.7,1.6,86,0.39,,,0.70,meteobridge,2013-07-22 04:14:00,
2013-07-21 22:21:00,62.1,57.7,30.28,SW,225,0.7,0.7,86,0.38,,,0.73,meteobridge,2013-07-22 04:21:00,
2013-07-21 22:25:00,62.2,57.9,30.28,South,180,0.0,1.6,86,0.34,,,0.76,meteobridge,2013-07-22 04:25:00,
2013-07-21 22:31:00,62.2,57.9,30.27,SE,135,0.0,0.7,86,0.30,,,0.78,meteobridge,2013-07-22 04:31:00,
2013-07-21 22:38:00,62.1,57.7,30.27,SW,225,2.2,3.1,86,0.28,,,0.79,meteobridge,2013-07-22 04:38:00,
2013-07-21 22:44:00,61.9,57.6,30.27,South,180,1.6,1.6,86,0.27,,,0.80,meteobridge,2013-07-22 04:44:00,
2013-07-21 22:50:00,61.9,57.6,30.27,South,180,0.0,0.0,86,0.26,,,0.81,meteobridge,2013-07-22 04:50:00,
2013-07-21 22:57:00,61.9,57.6,30.27,South,180,0.0,0.0,86,0.24,,,0.81,meteobridge,2013-07-22 04:57:00,
2013-07-21 23:03:00,61.7,57.4,30.27,South,180,0.0,0.0,86,0.21,,,0.83,meteobridge,2013-07-22 05:03:00,
2013-07-21 23:09:00,62.1,57.7,30.27,South,180,0.0,0.0,86,0.15,,,0.83,meteobridge,2013-07-22 05:09:00,
2013-07-21 23:16:00,61.9,57.6,30.27,South,180,0.0,0.0,86,0.12,,,0.83,meteobridge,2013-07-22 05:16:00,
2013-07-21 23:22:00,62.1,57.7,30.27,South,180,0.0,0.0,86,0.09,,,0.84,meteobridge,2013-07-22 05:22:00,
2013-07-21 23:28:00,61.9,57.6,30.27,South,180,0.0,0.0,86,0.07,,,0.84,meteobridge,2013-07-22 05:28:00,
2013-07-21 23:35:00,61.7,57.4,30.27,South,180,0.0,0.0,86,0.06,,,0.85,meteobridge,2013-07-22 05:35:00,
2013-07-21 23:41:00,61.9,57.6,30.26,South,180,0.0,0.0,86,0.05,,,0.85,meteobridge,2013-07-22 05:41:00,
2013-07-21 23:47:00,61.7,57.4,30.26,South,180,0.0,0.0,86,0.04,,,0.85,meteobridge,2013-07-22 05:47:00,
2013-07-21 23:54:00,61.7,57.4,30.25,South,180,0.0,0.0,86,0.04,,,0.85,meteobridge,2013-07-22 05:54:00,